DW7267 Weather Reports


Display with metric or nautical units.
time (UTC)temp
F
wind
direction
speed
MPH
gust
MPH
rain 1hr
in
rain 24hr
in
rain mn
in
humidity
%
barometer
mb
20200405101530 37 245 0.0 1.0 0.00 0.00 0.00 83 1012.1
20200405101029 35 204 0.0 1.0 0.00 0.00 0.00 86 1012.2
20200405100528 34 197 0.0 1.0 0.00 0.00 0.00 88 1012.2
20200405100027 33 143 0.0 0.0 0.00 0.00 0.00 88 1012.1
20200405095525 33 143 0.0 0.0 0.00 0.00 0.00 88 1012.2
20200405095023 33 143 0.0 0.0 0.00 0.00 0.00 88 1012.2
20200405094523 32 143 0.0 0.0 0.00 0.00 0.00 88 1012.2
20200405094017 32 143 0.0 0.0 0.00 0.00 0.00 87 1012.2
20200405093515 32 143 0.0 0.0 0.00 0.00 0.00 87 1012.2
20200405093013 32 143 0.0 0.0 0.00 0.00 0.00 87 1012.3
20200405092512 32 143 0.0 0.0 0.00 0.00 0.00 88 1012.3
20200405092011 32 143 0.0 0.0 0.00 0.00 0.00 88 1012.3
20200405091514 32 143 0.0 0.0 0.00 0.00 0.00 88 1012.4
20200405091007 32 143 0.0 0.0 0.00 0.00 0.00 88 1012.4
20200405090506 32 186 0.0 0.0 0.00 0.00 0.00 87 1012.4
20200405090007 32 186 0.0 0.0 0.00 0.00 0.00 87 1012.6
20200405085506 32 186 0.0 0.0 0.00 0.00 0.00 87 1012.6
20200405085007 32 186 0.0 0.0 0.00 0.00 0.00 87 1012.6
20200405084505 32 186 0.0 0.0 0.00 0.00 0.00 87 1012.7
20200405084000 32 188 0.0 0.0 0.00 0.00 0.00 87 1012.7
20200405083458 32 150 0.0 0.0 0.00 0.00 0.00 86 1012.7
20200405083000 32 229 0.0 0.0 0.00 0.00 0.00 86 1012.7
20200405082500 32 230 0.0 0.0 0.00 0.00 0.00 86 1012.7
20200405082000 32 230 0.0 0.0 0.00 0.00 0.00 86 1012.8
20200405081500 32 229 0.0 0.0 0.00 0.00 0.00 86 1012.7
20200405080957 32 231 0.0 0.0 0.00 0.00 0.00 86 1012.7
20200405080455 32 230 0.0 0.0 0.00 0.00 0.00 85 1012.7
20200405075954 32 230 0.0 0.0 0.00 0.00 0.00 85 1012.8
20200405075454 32 230 0.0 0.0 0.00 0.00 0.00 84 1012.8
20200405074953 33 231 0.0 0.0 0.00 0.00 0.00 84 1012.8
20200405074451 33 231 0.0 0.0 0.00 0.00 0.00 84 1012.9
20200405073953 33 231 0.0 0.0 0.00 0.00 0.00 84 1012.9
20200405073448 33 231 0.0 0.0 0.00 0.00 0.00 84 1012.9
20200405072950 33 230 0.0 0.0 0.00 0.00 0.00 84 1012.9
20200405072450 33 230 0.0 0.0 0.00 0.00 0.00 83 1012.9
20200405071949 33 229 0.0 0.0 0.00 0.00 0.00 82 1013.0
20200405071441 34 230 0.0 0.0 0.00 0.00 0.00 82 1013.0
20200405070938 34 231 0.0 0.0 0.00 0.00 0.00 82 1013.0
20200405070436 34 230 0.0 0.0 0.00 0.00 0.00 82 1013.0
20200405065937 34 231 0.0 0.0 0.00 0.00 0.00 82 1013.0
20200405065439 34 230 0.0 0.0 0.00 0.00 0.00 82 1013.0
20200405064933 34 231 0.0 0.0 0.00 0.00 0.00 82 1013.0
20200405064433 34 230 0.0 0.0 0.00 0.00 0.00 81 1013.0
20200405063933 35 97 0.0 0.0 0.00 0.00 0.00 80 1013.0
20200405063433 35 96 0.0 0.0 0.00 0.00 0.00 80 1013.0
20200405062931 35 97 0.0 1.0 0.00 0.00 0.00 79 1013.0
20200405062431 35 97 0.0 1.0 0.00 0.00 0.00 79 1013.0
20200405061925 35 97 0.0 2.0 0.00 0.00 0.00 79 1012.9
20200405061423 35 97 0.0 2.0 0.00 0.00 0.00 79 1012.9
20200405060921 36 97 0.0 2.0 0.00 0.00 0.00 78 1012.9
20200405060419 36 97 0.0 2.0 0.00 0.00 0.00 78 1012.8
20200405055919 36 88 0.0 2.0 0.00 0.00 0.00 77 1012.8
20200405055417 36 88 0.0 2.0 0.00 0.00 0.00 77 1012.9
20200405054915 36 88 1.0 3.0 0.00 0.00 0.00 78 1012.9
20200405054415 36 99 1.0 3.0 0.00 0.00 0.00 79 1012.8
20200405053915 35 152 0.0 0.0 0.00 0.00 0.00 78 1012.9
20200405053413 36 235 0.0 2.0 0.00 0.00 0.00 78 1013.0
20200405052913 36 235 0.0 2.0 0.00 0.00 0.00 77 1013.0
20200405052406 36 235 0.0 2.0 0.00 0.00 0.00 77 1012.9
20200405051906 36 235 0.0 2.0 0.00 0.00 0.00 77 1013.0
20200405051403 36 108 0.0 0.0 0.00 0.00 0.00 76 1012.9
20200405050902 37 107 0.0 2.0 0.00 0.00 0.00 76 1013.0
20200405050401 37 107 0.0 2.0 0.00 0.00 0.00 75 1013.0
20200405045854 37 108 0.0 2.0 0.00 0.00 0.00 75 1013.0
20200405045353 37 162 0.0 2.0 0.00 0.00 0.00 75 1013.0
20200405044852 37 131 0.0 1.0 0.00 0.00 0.00 75 1013.0
20200405044349 37 213 0.0 1.0 0.00 0.00 0.00 75 1012.9
20200405043849 37 207 0.0 0.0 0.00 0.00 0.00 75 1012.9
20200405043346 37 126 0.0 0.0 0.00 0.00 0.00 74 1012.9
20200405042845 38 126 0.0 0.0 0.00 0.00 0.00 74 1012.9
20200405042342 38 126 0.0 0.0 0.00 0.00 0.00 73 1012.9
20200405041844 38 126 0.0 1.0 0.00 0.00 0.00 73 1013.0
20200405041344 38 126 0.0 1.0 0.00 0.00 0.00 72 1012.9
20200405040844 38 126 0.0 1.0 0.00 0.00 0.00 71 1012.9
20200405040340 39 126 0.0 0.0 0.00 0.00 0.00 71 1012.9
20200405035835 39 126 0.0 0.0 0.00 0.00 0.00 70 1012.8
20200405035334 39 126 0.0 0.0 0.00 0.00 0.00 70 1012.9
20200405034832 40 126 0.0 0.0 0.00 0.00 0.00 69 1012.8
20200405034332 40 126 0.0 0.0 0.00 0.00 0.00 68 1012.8
20200405033828 40 126 0.0 0.0 0.00 0.00 0.00 67 1012.7
20200405033329 41 126 0.0 0.0 0.00 0.00 0.00 67 1012.7
20200405032829 41 126 0.0 1.0 0.00 0.00 0.00 66 1012.7
20200405032327 42 126 0.0 1.0 0.00 0.00 0.00 65 1012.7
20200405031826 42 126 0.0 1.0 0.00 0.00 0.00 64 1012.6
20200405031325 42 126 0.0 1.0 0.00 0.00 0.00 64 1012.6
20200405030824 42 126 0.0 1.0 0.00 0.00 0.00 63 1012.6
20200405030320 42 206 0.0 0.0 0.00 0.00 0.00 62 1012.4
20200405025821 43 206 0.0 0.0 0.00 0.00 0.00 62 1012.4
20200405025319 43 206 0.0 0.0 0.00 0.00 0.00 61 1012.3
20200405024817 44 206 0.0 0.0 0.00 0.00 0.00 59 1012.3
20200405024317 45 206 0.0 0.0 0.00 0.00 0.00 57 1012.2
20200405023812 45 206 0.0 0.0 0.00 0.00 0.00 55 1012.2
20200405023314 46 207 0.0 0.0 0.00 0.00 0.00 53 1012.2
20200405022811 47 206 0.0 0.0 0.00 0.00 0.00 52 1012.2
20200405022311 47 206 0.0 1.0 0.00 0.00 0.00 51 1012.2
20200405021812 48 206 0.0 1.0 0.00 0.00 0.00 49 1012.1
20200405021311 49 206 0.0 1.0 0.00 0.00 0.00 48 1012.1
20200405020804 49 206 0.0 1.0 0.00 0.00 0.00 46 1012.1
20200405020302 50 206 0.0 0.0 0.00 0.00 0.00 45 1012.2
20200405015801 51 206 0.0 3.0 0.00 0.00 0.00 43 1012.2
20200405015259 52 206 0.0 3.0 0.00 0.00 0.00 41 1012.2
20200405014759 53 206 0.0 3.0 0.00 0.00 0.00 40 1012.2
20200405014252 53 275 1.0 6.0 0.00 0.00 0.00 39 1012.2
20200405013754 53 279 1.0 6.0 0.00 0.00 0.00 39 1012.3
20200405013253 54 189 1.0 6.0 0.00 0.00 0.00 39 1012.3
20200405012753 54 228 2.0 12.0 0.00 0.00 0.00 39 1012.2
20200405012254 54 228 3.0 12.0 0.00 0.00 0.00 38 1012.2
20200405011755 55 173 3.0 12.0 0.00 0.00 0.00 38 1012.3
20200405011247 55 247 3.0 12.0 0.00 0.00 0.00 37 1012.2
20200405010748 56 257 2.0 12.0 0.00 0.00 0.00 36 1012.2
20200405010248 56 165 3.0 13.0 0.00 0.00 0.00 35 1012.2
20200405005747 56 214 3.0 13.0 0.00 0.00 0.00 35 1012.2
20200405005248 56 193 4.0 13.0 0.00 0.00 0.00 34 1012.2
20200405004747 57 149 5.0 14.0 0.00 0.00 0.00 34 1012.2
20200405004243 57 250 4.0 14.0 0.00 0.00 0.00 34 1012.1
20200405003742 57 155 4.0 15.0 0.00 0.00 0.00 34 1012.2
20200405003245 58 220 4.0 15.0 0.00 0.00 0.00 34 1012.1
20200405002744 58 228 4.0 14.0 0.00 0.00 0.00 36 1012.0
20200405002242 58 259 4.0 14.0 0.00 0.00 0.00 36 1012.0
20200405001741 58 196 4.0 16.0 0.00 0.00 0.00 36 1012.0
20200405001235 58 228 4.0 16.0 0.00 0.00 0.00 36 1012.2
20200405000735 58 82 5.0 16.0 0.00 0.00 0.00 36 1012.1
20200405000235 58 188 5.0 16.0 0.00 0.00 0.00 35 1012.0
20200404235736 58 157 4.0 12.0 0.00 0.00 0.00 35 1012.0
20200404235234 59 221 3.0 12.0 0.00 0.00 0.00 36 1012.0
20200404234733 59 273 4.0 12.0 0.00 0.00 0.00 37 1012.0
20200404234229 59 195 4.0 13.0 0.00 0.00 0.00 38 1012.0
20200404233729 59 258 4.0 13.0 0.00 0.00 0.00 37 1011.9
20200404233228 58 286 5.0 12.0 0.00 0.00 0.00 37 1012.0
20200404232730 58 125 6.0 14.0 0.00 0.00 0.00 37 1012.0
20200404232227 58 167 6.0 14.0 0.00 0.00 0.00 37 1012.0
20200404231729 59 219 5.0 12.0 0.00 0.00 0.00 37 1012.1
20200404231223 59 250 5.0 12.0 0.00 0.00 0.00 37 1012.0
20200404230724 59 33 5.0 11.0 0.00 0.00 0.00 38 1011.9
20200404230222 59 247 4.0 14.0 0.00 0.00 0.00 38 1012.0
20200404225721 59 222 4.0 14.0 0.00 0.00 0.00 38 1012.0
20200404225222 59 138 5.0 15.0 0.00 0.00 0.00 40 1012.1
20200404224721 59 198 5.0 15.0 0.00 0.00 0.00 37 1012.0
20200404224218 59 233 5.0 12.0 0.00 0.00 0.00 39 1012.2
20200404223718 59 208 5.0 12.0 0.00 0.00 0.00 39 1012.2
20200404223218 59 181 5.0 11.0 0.00 0.00 0.00 37 1012.0
20200404222718 59 103 5.0 11.0 0.00 0.00 0.00 39 1012.1
20200404222215 59 161 5.0 11.0 0.00 0.00 0.00 37 1012.1
20200404221716 59 190 4.0 12.0 0.00 0.00 0.00 38 1012.1
20200404221210 59 248 5.0 12.0 0.00 0.00 0.00 39 1012.1
20200404220710 59 255 4.0 11.0 0.00 0.00 0.00 36 1012.0
20200404220211 59 268 3.0 8.0 0.00 0.00 0.00 37 1012.1
20200404215711 59 225 5.0 13.0 0.00 0.00 0.00 37 1012.0
20200404215213 58 202 5.0 13.0 0.00 0.00 0.00 37 1012.2
20200404214711 59 248 6.0 14.0 0.00 0.00 0.00 37 1012.2
20200404214206 59 148 6.0 18.0 0.00 0.00 0.00 36 1012.2
20200404213704 59 252 5.0 18.0 0.00 0.00 0.00 37 1012.3
20200404213205 59 255 5.0 18.0 0.00 0.00 0.00 37 1012.3
20200404212706 59 215 6.0 18.0 0.00 0.00 0.00 36 1012.6
20200404212203 59 121 6.0 13.0 0.00 0.00 0.00 36 1012.4
20200404211703 59 223 5.0 13.0 0.00 0.00 0.00 36 1012.4
20200404211200 59 220 5.0 12.0 0.00 0.00 0.00 36 1012.4
20200404210702 59 147 5.0 12.0 0.00 0.00 0.00 37 1012.6
20200404210201 59 126 4.0 13.0 0.00 0.00 0.00 36 1012.7
20200404205705 59 300 3.0 13.0 0.00 0.00 0.00 36 1012.7
20200404205202 59 107 3.0 11.0 0.00 0.00 0.00 36 1012.7
20200404204703 59 213 4.0 11.0 0.00 0.00 0.00 37 1012.8
20200404204203 59 207 4.0 12.0 0.00 0.00 0.00 35 1012.9
20200404203655 59 219 4.0 12.0 0.00 0.00 0.00 34 1012.9
20200404203156 60 100 4.0 9.0 0.00 0.00 0.00 33 1013.0
20200404202659 59 242 3.0 11.0 0.00 0.00 0.00 36 1013.0
20200404202156 59 200 5.0 11.0 0.00 0.00 0.00 35 1013.0
20200404201656 58 143 5.0 12.0 0.00 0.00 0.00 34 1013.2
20200404201156 58 138 5.0 12.0 0.00 0.00 0.00 34 1013.2
20200404200650 59 196 5.0 15.0 0.00 0.00 0.00 35 1013.3
20200404200150 59 164 5.0 15.0 0.00 0.00 0.00 36 1013.2
20200404195653 59 175 5.0 16.0 0.00 0.00 0.00 34 1013.4
20200404195151 58 137 5.0 16.0 0.00 0.00 0.00 39 1013.4
20200404194650 58 206 5.0 13.0 0.00 0.00 0.00 36 1013.4
20200404194149 58 235 5.0 11.0 0.00 0.00 0.00 37 1013.5
20200404193647 58 146 5.0 11.0 0.00 0.00 0.00 39 1013.6
20200404193149 58 177 5.0 15.0 0.00 0.00 0.00 36 1013.6
20200404192645 58 189 5.0 15.0 0.00 0.00 0.00 36 1013.6
20200404192146 58 235 5.0 16.0 0.00 0.00 0.00 35 1013.6
20200404191647 58 145 6.0 16.0 0.00 0.00 0.00 34 1013.9
20200404191147 58 252 5.0 12.0 0.00 0.00 0.00 37 1013.9
20200404190642 58 225 5.0 13.0 0.00 0.00 0.00 36 1013.9
20200404190139 57 161 5.0 13.0 0.00 0.00 0.00 38 1014.0
20200404185640 57 202 4.0 11.0 0.00 0.00 0.00 36 1014.0
20200404185148 57 200 4.0 11.0 0.00 0.00 0.00 40 1014.0
20200404184637 57 238 5.0 11.0 0.00 0.00 0.00 35 1014.0
20200404184137 57 254 4.0 10.0 0.00 0.00 0.00 37 1014.1
20200404183632 56 126 5.0 14.0 0.00 0.00 0.00 37 1014.1
20200404183131 57 238 4.0 14.0 0.00 0.00 0.00 37 1014.2
20200404182633 56 220 5.0 13.0 0.00 0.00 0.00 40 1014.3
20200404182132 56 163 6.0 12.0 0.00 0.00 0.00 38 1014.3
20200404181631 56 140 5.0 13.0 0.00 0.00 0.00 37 1014.5
20200404181131 56 155 5.0 12.0 0.00 0.00 0.00 38 1014.5
20200404180626 56 171 5.0 11.0 0.00 0.00 0.00 38 1014.5
20200404180125 56 217 4.0 12.0 0.00 0.00 0.00 37 1014.5
20200404175625 56 172 3.0 12.0 0.00 0.00 0.00 39 1014.5
20200404175126 56 252 4.0 12.0 0.00 0.00 0.00 38 1014.6
20200404174625 55 241 5.0 12.0 0.00 0.00 0.00 38 1014.7
20200404174126 56 268 5.0 14.0 0.00 0.00 0.00 38 1014.7
20200404173620 55 253 4.0 14.0 0.00 0.00 0.00 39 1014.6
20200404173120 55 140 5.0 14.0 0.00 0.00 0.00 36 1014.7
20200404172619 55 188 5.0 14.0 0.00 0.00 0.00 36 1014.7
20200404172119 55 251 4.0 10.0 0.00 0.00 0.00 38 1014.7
20200404171620 55 207 4.0 12.0 0.00 0.00 0.00 39 1014.7
20200404171119 54 138 5.0 12.0 0.00 0.00 0.00 40 1014.6
20200404170614 55 138 5.0 11.0 0.00 0.00 0.00 38 1014.7
20200404170112 55 100 4.0 11.0 0.00 0.00 0.00 40 1014.7
20200404165612 55 147 4.0 10.0 0.00 0.00 0.00 39 1014.7
20200404165113 54 130 4.0 10.0 0.00 0.00 0.00 38 1014.7
20200404164612 54 193 3.0 10.0 0.00 0.00 0.00 38 1014.6
20200404164112 54 155 4.0 10.0 0.00 0.00 0.00 37 1014.6
20200404163606 54 169 4.0 11.0 0.00 0.00 0.00 38 1014.5
20200404163106 54 116 4.0 11.0 0.00 0.00 0.00 35 1014.5
20200404162607 54 220 5.0 10.0 0.00 0.00 0.00 35 1014.3
20200404162106 54 202 4.0 10.0 0.00 0.00 0.00 36 1014.3
20200404161605 54 149 4.0 12.0 0.00 0.00 0.00 38 1014.2
20200404161105 54 195 4.0 12.0 0.00 0.00 0.00 37 1014.1
20200404160600 53 155 4.0 10.0 0.00 0.00 0.00 36 1014.1
20200404160059 53 93 5.0 11.0 0.00 0.00 0.00 36 1014.0
20200404155559 53 133 4.0 11.0 0.00 0.00 0.00 35 1014.0
20200404155100 53 116 4.0 8.0 0.00 0.00 0.00 38 1013.9
20200404154559 53 109 4.0 8.0 0.00 0.00 0.00 38 1013.7
20200404154101 53 50 3.0 8.0 0.00 0.00 0.00 39 1013.7
20200404153553 53 133 4.0 8.0 0.00 0.00 0.00 40 1013.6
20200404153054 52 212 3.0 8.0 0.00 0.00 0.00 39 1013.6
20200404152554 52 165 2.0 7.0 0.00 0.00 0.00 44 1013.5
20200404152054 52 167 2.0 7.0 0.00 0.00 0.00 44 1013.5
20200404151553 51 183 3.0 7.0 0.00 0.00 0.00 49 1013.5
20200404151053 50 133 3.0 7.0 0.00 0.00 0.00 48 1013.5
20200404150548 49 158 3.0 6.0 0.00 0.00 0.00 53 1013.4
20200404150047 48 135 2.0 6.0 0.00 0.00 0.00 56 1013.4
20200404145548 47 91 1.0 6.0 0.00 0.00 0.00 62 1013.3
20200404145047 45 164 1.0 6.0 0.00 0.00 0.00 70 1013.2
20200404144548 43 107 0.0 3.0 0.00 0.00 0.00 75 1013.2
20200404144047 42 84 0.0 2.0 0.00 0.00 0.00 77 1013.2
20200404143540 41 84 0.0 1.0 0.00 0.00 0.00 78 1013.0
20200404143040 40 84 0.0 2.0 0.00 0.00 0.00 79 1013.0
20200404142537 39 84 0.0 2.0 0.00 0.00 0.00 81 1012.9
20200404142036 38 84 0.0 2.0 0.00 0.00 0.00 84 1012.9
20200404141535 37 84 0.0 2.0 0.00 0.00 0.00 86 1013.0
20200404141031 35 78 1.0 2.0 0.00 0.00 0.00 88 1012.9
20200404140530 34 78 1.0 2.0 0.00 0.00 0.00 89 1012.9
20200404140032 33 121 0.0 2.0 0.00 0.00 0.00 90 1013.0
20200404135529 33 137 0.0 3.0 0.00 0.00 0.00 91 1013.0
20200404135028 32 67 0.0 3.0 0.00 0.00 0.00 92 1012.9
20200404134529 31 148 0.0 2.0 0.00 0.00 0.00 92 1012.9
20200404134023 30 113 0.0 2.0 0.00 0.00 0.00 92 1012.8
20200404133524 30 113 0.0 3.0 0.00 0.00 0.00 92 1012.8
20200404133024 29 103 0.0 3.0 0.00 0.00 0.00 91 1012.7
20200404132523 29 129 0.0 1.0 0.00 0.00 0.00 91 1012.7
20200404132021 29 152 0.0 2.0 0.00 0.00 0.00 91 1012.7
20200404131521 29 105 1.0 2.0 0.00 0.00 0.00 91 1012.7
20200404131015 29 160 0.0 2.0 0.00 0.00 0.00 91 1012.7
20200404130514 29 112 0.0 2.0 0.00 0.00 0.00 91 1012.7
20200404130012 29 110 0.0 2.0 0.00 0.00 0.00 91 1012.6
20200404125509 29 138 1.0 2.0 0.00 0.00 0.00 91 1012.7
20200404125009 29 162 0.0 2.0 0.00 0.00 0.00 91 1012.7
20200404124502 29 123 0.0 3.0 0.00 0.00 0.00 91 1012.6
20200404124002 29 116 0.0 3.0 0.00 0.00 0.00 90 1012.6
20200404123459 30 116 0.0 3.0 0.00 0.00 0.00 90 1012.6
20200404122958 30 116 1.0 3.0 0.00 0.00 0.00 91 1012.6
20200404122457 30 148 1.0 2.0 0.00 0.00 0.00 91 1012.6
20200404121954 30 151 1.0 2.0 0.00 0.00 0.00 91 1012.4
20200404121723 30 181 1.0 2.0 0.00 0.00 0.00 91 1012.4
20200404121029 30 152 0.0 2.0 0.00 0.00 0.00 91 1012.4
20200404120515 30 191 0.0 2.0 0.00 0.00 0.00 91 1012.4
20200404115951 30 206 1.0 2.0 0.00 0.00 0.00 90 1012.4
20200404115512 30 162 1.0 2.0 0.00 0.00 0.00 90 1012.4
20200404114946 30 162 1.0 3.0 0.00 0.00 0.00 91 1012.4
20200404114528 30 162 0.0 3.0 0.00 0.00 0.00 90 1012.6
20200404114345 30 143 0.0 3.0 0.00 0.00 0.00 90 1012.4
20200404114015 30 143 0.0 3.0 0.00 0.00 0.00 90 1012.4
20200404113458 30 100 0.0 3.0 0.00 0.00 0.00 90 1012.4
20200404112952 30 176 0.0 2.0 0.00 0.00 0.00 90 1012.4
20200404112837 30 157 0.0 2.0 0.00 0.00 0.00 90 1012.6
20200404112525 30 157 0.0 2.0 0.00 0.00 0.00 90 1012.6
20200404112002 30 155 0.0 2.0 0.00 0.00 0.00 90 1012.4
20200404111501 30 93 0.0 2.0 0.00 0.00 0.00 90 1012.4
20200404110936 31 159 0.0 2.0 0.00 0.00 0.00 90 1012.6
20200404110735 31 107 1.0 2.0 0.00 0.00 0.00 90 1012.6
20200404110444 31 107 1.0 2.0 0.00 0.00 0.00 90 1012.6
20200404110237 31 104 0.0 1.0 0.00 0.00 0.00 90 1012.6
20200404110007 31 104 0.0 1.0 0.00 0.00 0.00 90 1012.6
20200404105454 31 155 0.0 1.0 0.00 0.00 0.00 90 1012.6
20200404104945 31 140 0.0 2.0 0.00 0.00 0.00 90 1012.4
20200404104439 31 100 0.0 2.0 0.00 0.00 0.00 90 1012.6
20200404103927 31 171 0.0 2.0 0.00 0.00 0.00 90 1012.4
20200404103454 31 138 0.0 2.0 0.00 0.00 0.00 90 1012.4
20200404102948 30 93 0.0 1.0 0.00 0.00 0.00 90 1012.4
20200404102440 30 126 0.0 1.0 0.00 0.00 0.00 89 1012.4
20200404101929 31 105 0.0 1.0 0.00 0.00 0.00 89 1012.4